{"data":{"norad_id":66792,"intl_designator":"2025-278B","name":"STARLINK-35990","alt_names":[],"object_type":"PAYLOAD","status":"ACTIVE","operator":null,"country":"US","launch_date":"2025-12-01","launch_site_code":"AFETR","launch_vehicle":null,"mission":null,"orbit_class":"UNKNOWN","rcs_meters":null,"size_class":null,"mass_kg":null,"dimensions":null,"purposes":["comms"],"wikipedia_slug":null,"has_3d_model":false,"image_url":null,"decayed_at":null,"tle_current":{"epoch":"2026-05-25T03:19:23.178144Z","epoch_age_seconds":60188,"freshness":"FRESH","line1":"1 66792U 25278B   26145.13846271  .00027147  00000+0  99191-3 0  9996","line2":"2 66792  43.0020  42.3945 0001209 278.0616  82.0099 15.27596332 26908","mean_motion":15.27596332,"eccentricity":0.0001209,"inclination_deg":43.002,"raan_deg":42.3945,"arg_perigee_deg":278.0616,"mean_anomaly_deg":82.0099,"bstar":0.00099191,"rev_number":2690,"period_min":94.265740878985,"perigee_km":482.17068110537,"apogee_km":483.82970407854,"semimajor_km":6861.137192592,"source":"CELESTRAK","updated_at":"2026-05-25T13:38:21.324109Z"}}}